sat.trackr.live / text

‹ back to catalog

INTELSAT 18 (IS-18)

NORAD 37834 · 2011-056A

PAYLOAD ACTIVE UNKNOWN

§ Identity

Operator
Country
ITSO
Launch date
2011-10-05
Launch site
TYMSC
Launch vehicle
Mass (kg)
RCS (m²)
37.75

Purposes: comms

External: N2YO · Heavens-Above · Gunter

§ Orbital elements

Epoch: 2026-05-25T02:53:20.229792Z

Period
1,436.10 min
Inclination
0.0179°
Eccentricity
0.0002037
Mean motion
1.00271909 rev/d
Perigee alt
35,778.0 km
Apogee alt
35,795.1 km
Semi-major
42,164.7 km
B*
0.0000e+0
RAAN
324.2360°
Arg perigee
104.4311°
Mean anomaly
37.3752°
Rev number
5,358

§ Raw data

INTELSAT 18 (IS-18)1 37834U 11056A   26145.12037303  .00000050  00000+0  00000+0 0  99982 37834   0.0179 324.2360 0002037 104.4311  37.3752  1.00271909 53587

JSON: /api/v1/satellites/37834 · /tle

For live sub-satellite position, see the globe view (requires WebGL).

§ Visibility from observer

Set your observer location to see the next 7 days of passes ≥ 10°. The values pass through the URL so the page stays shareable.

No JS? Fill the form by hand. The geolocation button needs JavaScript.